Meath Environmental Platform

Observations for Trim Patrick St

Time AQI Temp °C Hum % Pres Pa CO μg/m³ H₂S μg/m³ NO μg/m³ NO₂ μg/m³ O₃ μg/m³ SO₂ μg/m³ PM1 μg/m³ PM2.5 μg/m³ PM10 μg/m³
Monday 3 August 2026
13:50 3 30 37 69,195 0 9.07 1.48 26.5 149.43 11.79 3.71 10.43 11.47
13:49 3 30.1 36 69,202 0 8.68 1.46 29.74 144.65 11.05 5.43 12.02 13.23
13:47 3 30.2 36 69,220 0 10.79 1.41 27.31 200.85 12.99 5.43 11.28 12.41
13:46 3 30.3 36 69,204 0 5.45 1.4 25.75 148.3 11.36 4.57 12.09 13.3
13:45 3 30.3 35 69,214 0 4.62 1.4 26.76 158.02 11.7 4.57 10.53 11.58
13:41 2 30.4 36 69,220 0 10.05 1.39 26.77 184.03 12.45 4.57 10.49 11.54
13:40 2 30.4 35 69,232 0 9.6 1.38 35.24 197.67 11.11 3.71 11.32 12.45
13:39 2 30.4 34 69,220 0 0 1.4 20 91.64 11.29 3.71 10.6 11.66
13:38 2 30.4 35 69,232 0 8.68 1.44 34.05 212.82 11.41 4.57 10.57 11.62
13:37 2 30.3 35 69,216 0 0.22 1.46 25.27 185.38 11.06 3.71 10.56 11.62
13:36 2 30.3 35 69,228 0 0 1.44 17.72 118.52 11.88 4.57 9.77 10.74
13:35 2 30.3 34 69,214 0 0 1.44 17.38 120.65 11.26 3.71 9.78 10.76
13:34 2 30.3 32 69,220 0 0 1.3 13.7 107.6 10.64 5.43 11.55 12.7
13:33 2 30.2 35 69,202 0 7.33 1.39 21.77 151.05 12.28 4.57 10.55 11.61
13:32 2 30.2 34 69,179 0 9.88 1.39 23.74 212.71 12.68 3.71 9.8 10.78
13:31 2 30.2 35 69,208 0 6.99 1.4 25.2 258.94 12.41 4.57 10.56 11.62
13:28 2 30.1 36 69,163 0 0 1.5 17.53 129.93 11.4 4.57 11.28 12.41
13:27 2 30.1 33 69,157 0 0 1.33 20.56 174.66 11.72 4.57 10.7 11.77
13:26 2 30.1 36 69,151 0 0 1.49 25.16 157.76 11 4.57 9.7 10.67
13:25 2 30.1 33 69,173 0 0 1.32 19.75 110.37 10.1 4.57 10.69 11.76